Location: Newark
(48.8833°N, 0.9236°W)
Time: 22:22:24
(UTC+00:00)

Tiros 1 despin weight - Pass Details

Date: 24 November 2019
Orbit: 594 x 642 km, 48.2° (Epoch: 10 December)

Event Time Altitude Azimuth Distance (km) Brightness Sun altitude
Rises 15:35:44 0° 281° (W) 2,834 ? 4.4°
Reaches altitude 10° 15:38:02 10° 277° (W) 1,933 ? 4.1°
Maximum altitude 15:42:23 58° 199° (SSW) 700 ? 3.5°
Drops below altitude 10° 15:46:46 10° 120° (ESE) 1,949 ? 2.9°
Sets 15:49:06 0° 117° (ESE) 2,859 ? 2.6°
